Flag for U.S.A. Weather past 2 weeks in Passaic, New Jersey, U.S.A.

Now
52 °F

Sunny.


Feels Like: 48 °F
Forecast: 35 / 51 °F
Wind: 12 mph from Northwest

Location: Teterboro Airport

Current Time: Apr 1, 2015 at 5:55:11 PM

Latest Report: Apr 1, 2015 at 4:51 PM


Visibility: 10 mi

Pressure: 30.06 "Hg

Humidity: 32%

Dew point: 23 °F

Location of PassaicLocation

Historic Weather in Passaic — Graph

°F

Passaic temperature yesterday

Maximum temperature yesterday: 46 °F (at 11:51 AM)
Minimum temperature yesterday: 35 °F (at 7:51 PM)
Average temperature yesterday: 39 °F

Past Weeks' High & Low Weather Summary

 TemperatureHumidityPressure
High57 °F (Mar 26, 7:51 PM)93% (Mar 25, 10:51 PM)30.42 "Hg (Mar 25, 10:51 PM)
Low22 °F (Mar 23, 6:51 AM)18% (Mar 29, 5:51 PM)29.57 "Hg (Mar 26, 6:51 PM)
Average37 °F53%30.05 "Hg
* Reported Mar 17 4:51 PM — Apr 1 4:51 PM, Passaic, Weather by CustomWeather, © 2015

Note: Actual official high and low records may vary slightly from our data, if they occured in-between our weather recording intervals... More about our weather records

Advertising

Passaic weather history for previous 24 hours

 ConditionsComfort  
Time TempWeatherWind HumidityBarometerVisibility
4:51 PM
Wed, Apr 1
52 °FSunny.12 mph32%30.06 "Hg10 mi
3:51 PM50 °FSunny.10 mph33%30.06 "Hg10 mi
2:51 PM48 °FSunny.10 mph34%30.07 "Hg10 mi
1:51 PM45 °FSunny.14 mph40%30.09 "Hg10 mi
12:51 PM43 °FPassing clouds.9 mph37%30.08 "Hg10 mi
11:51 AM43 °FSunny.9 mph37%30.08 "Hg10 mi
10:51 AM39 °FSunny.6 mph41%30.08 "Hg10 mi
9:51 AM37 °FSunny.7 mph44%30.07 "Hg10 mi
8:51 AM34 °FSunny.7 mph52%30.05 "Hg10 mi
7:51 AM34 °FSunny.6 mph54%30.01 "Hg10 mi
6:51 AM32 °FClear.7 mph61%29.97 "Hg10 mi
5:51 AM32 °FClear.5 mph64%29.94 "Hg10 mi
4:51 AM33 °FClear.9 mph63%29.90 "Hg10 mi
3:51 AM33 °FClear.6 mph72%29.88 "Hg10 mi
2:51 AM34 °FClear.9 mph73%29.85 "Hg10 mi
1:51 AM35 °FClear.9 mph75%29.84 "Hg10 mi
12:51 AM35 °FClear.5 mph85%29.82 "Hg10 mi
11:58 PM
Tue, Mar 31
36 °FClear.5 mph87%29.81 "Hg10 mi
10:51 PM36 °FPassing clouds.5 mph89%29.81 "Hg6 mi
9:51 PM36 °FMostly cloudy.6 mph89%29.80 "Hg4 mi
8:58 PM36 °FLight snow. Low clouds.No wind87%29.79 "Hg1 mi
7:51 PM35 °FLight rain. Fog.5 mph88%29.77 "Hg4 mi
6:51 PM36 °FLight rain. Fog.5 mph89%29.76 "Hg5 mi
5:51 PM37 °FLight rain. Fog.6 mph89%29.76 "Hg6 mi
Weather by CustomWeather, © 2015

See weather overviewHow to use our weather pages